Year,Month,Day,Hour,Minute,Value (Times are PST for temperature in C)
2011,05,17,00,00,8.20
2011,05,17,00,01,8.20
2011,05,17,00,02,8.10
2011,05,17,00,03,8.10
2011,05,17,00,04,8.10
2011,05,17,00,05,8.10
2011,05,17,00,06,8.10
2011,05,17,00,07,8.10
2011,05,17,00,08,8.10
2011,05,17,00,09,8.10
2011,05,17,00,10,8.10
2011,05,17,00,11,8.10
2011,05,17,00,12,8.10
2011,05,17,00,13,8.10
2011,05,17,00,14,8.10
2011,05,17,00,15,8.10
2011,05,17,00,16,8.10
2011,05,17,00,17,8.00
2011,05,17,00,18,8.00
2011,05,17,00,19,8.10
2011,05,17,00,20,8.10
2011,05,17,00,21,8.10
2011,05,17,00,22,8.10
2011,05,17,00,23,8.10
2011,05,17,00,24,8.10
2011,05,17,00,25,8.10
2011,05,17,00,26,8.10
2011,05,17,00,27,8.10
2011,05,17,00,28,8.10
2011,05,17,00,29,8.10
2011,05,17,00,30,8.10
2011,05,17,00,31,8.10
2011,05,17,00,32,8.10
2011,05,17,00,33,8.10
2011,05,17,00,34,8.10
2011,05,17,00,35,8.10
2011,05,17,00,36,8.10
2011,05,17,00,37,8.00
2011,05,17,00,38,8.00
2011,05,17,00,39,8.00
2011,05,17,00,40,8.00
2011,05,17,00,41,8.00
2011,05,17,00,42,8.00
2011,05,17,00,43,8.00
2011,05,17,00,44,8.00
2011,05,17,00,45,8.00
2011,05,17,00,46,8.00
2011,05,17,00,47,8.00
2011,05,17,00,48,8.00
2011,05,17,00,49,8.00
2011,05,17,00,50,8.00
2011,05,17,00,51,8.00
2011,05,17,00,52,8.00
2011,05,17,00,53,8.00
2011,05,17,00,54,7.90
2011,05,17,00,55,7.90
2011,05,17,00,56,7.90
2011,05,17,00,57,7.90
2011,05,17,00,58,7.90
2011,05,17,00,59,7.90
2011,05,17,01,00,7.90
2011,05,17,01,01,7.90
2011,05,17,01,02,7.90
2011,05,17,01,03,7.90
2011,05,17,01,04,7.90
2011,05,17,01,05,7.90
2011,05,17,01,06,7.90
2011,05,17,01,07,7.90
2011,05,17,01,08,7.90
2011,05,17,01,09,7.90
2011,05,17,01,10,7.80
2011,05,17,01,11,7.80
2011,05,17,01,12,7.80
2011,05,17,01,13,7.80
2011,05,17,01,14,7.80
2011,05,17,01,15,7.80
2011,05,17,01,16,7.80
2011,05,17,01,17,7.80
2011,05,17,01,18,7.80
2011,05,17,01,19,7.70
2011,05,17,01,20,7.70
2011,05,17,01,21,7.70
2011,05,17,01,22,7.70
2011,05,17,01,23,7.70
2011,05,17,01,24,7.70
2011,05,17,01,25,7.70
2011,05,17,01,26,7.70
2011,05,17,01,27,7.70
2011,05,17,01,28,7.70
2011,05,17,01,29,7.70
2011,05,17,01,30,7.70
2011,05,17,01,31,7.70
2011,05,17,01,32,7.70
2011,05,17,01,33,7.70
2011,05,17,01,34,7.70
2011,05,17,01,35,7.70
2011,05,17,01,36,7.70
2011,05,17,01,37,7.70
2011,05,17,01,38,7.70
2011,05,17,01,39,7.70
2011,05,17,01,40,7.70
2011,05,17,01,41,7.70
2011,05,17,01,42,7.70
2011,05,17,01,43,7.70
2011,05,17,01,44,7.60
2011,05,17,01,45,7.60
2011,05,17,01,46,7.60
2011,05,17,01,47,7.60
2011,05,17,01,48,7.60
2011,05,17,01,49,7.60
2011,05,17,01,50,7.60
2011,05,17,01,51,7.60
2011,05,17,01,52,7.50
2011,05,17,01,53,7.50
2011,05,17,01,54,7.50
2011,05,17,01,55,7.50
2011,05,17,01,56,7.50
2011,05,17,01,57,7.40
2011,05,17,01,58,7.40
2011,05,17,01,59,7.40
2011,05,17,02,00,7.40
2011,05,17,02,01,7.40
2011,05,17,02,02,7.40
2011,05,17,02,03,7.40
2011,05,17,02,04,7.30
2011,05,17,02,05,7.30
2011,05,17,02,06,7.30
2011,05,17,02,07,7.30
2011,05,17,02,08,7.30
2011,05,17,02,09,7.30
2011,05,17,02,10,7.20
2011,05,17,02,11,7.20
2011,05,17,02,12,7.20
2011,05,17,02,13,7.20
2011,05,17,02,14,7.20
2011,05,17,02,15,7.20
2011,05,17,02,16,7.10
2011,05,17,02,17,7.10
2011,05,17,02,18,7.10
2011,05,17,02,19,7.10
2011,05,17,02,20,7.00
2011,05,17,02,21,7.00
2011,05,17,02,22,6.90
2011,05,17,02,23,6.90
2011,05,17,02,24,6.90
2011,05,17,02,25,6.80
2011,05,17,02,26,6.80
2011,05,17,02,27,6.70
2011,05,17,02,28,6.70
2011,05,17,02,29,6.60
2011,05,17,02,30,6.60
2011,05,17,02,31,6.50
2011,05,17,02,32,6.50
2011,05,17,02,33,6.40
2011,05,17,02,34,6.40
2011,05,17,02,35,6.40
2011,05,17,02,36,6.40
2011,05,17,02,37,6.40
2011,05,17,02,38,6.40
2011,05,17,02,39,6.40
2011,05,17,02,40,6.40
2011,05,17,02,41,6.40
2011,05,17,02,42,6.40
2011,05,17,02,43,6.40
2011,05,17,02,44,6.50
2011,05,17,02,45,6.50
2011,05,17,02,46,6.50
2011,05,17,02,47,6.50
2011,05,17,02,48,6.50
2011,05,17,02,49,6.60
2011,05,17,02,50,6.50
2011,05,17,02,51,6.50
2011,05,17,02,52,6.50
2011,05,17,02,53,6.50
2011,05,17,02,54,6.50
2011,05,17,02,55,6.40
2011,05,17,02,56,6.40
2011,05,17,02,57,6.40
2011,05,17,02,58,6.40
2011,05,17,02,59,6.40
2011,05,17,03,00,6.30
2011,05,17,03,01,6.30
2011,05,17,03,02,6.30
2011,05,17,03,03,6.30
2011,05,17,03,04,6.20
2011,05,17,03,05,6.20
2011,05,17,03,06,6.20
2011,05,17,03,07,6.20
2011,05,17,03,08,6.20
2011,05,17,03,09,6.10
2011,05,17,03,10,6.10
2011,05,17,03,11,6.00
2011,05,17,03,12,6.00
2011,05,17,03,13,5.90
2011,05,17,03,14,5.90
2011,05,17,03,15,5.90
2011,05,17,03,16,5.80
2011,05,17,03,17,5.80
2011,05,17,03,18,5.80
2011,05,17,03,19,5.80
2011,05,17,03,20,5.80
2011,05,17,03,21,5.70
2011,05,17,03,22,5.70
2011,05,17,03,23,5.70
2011,05,17,03,24,5.70
2011,05,17,03,25,5.60
2011,05,17,03,26,5.60
2011,05,17,03,27,5.60
2011,05,17,03,28,5.60
2011,05,17,03,29,5.60
2011,05,17,03,30,5.50
2011,05,17,03,31,5.50
2011,05,17,03,32,5.50
2011,05,17,03,33,5.40
2011,05,17,03,34,5.40
2011,05,17,03,35,5.40
2011,05,17,03,36,5.40
2011,05,17,03,37,5.30
2011,05,17,03,38,5.30
2011,05,17,03,39,5.30
2011,05,17,03,40,5.30
2011,05,17,03,41,5.30
2011,05,17,03,42,5.30
2011,05,17,03,43,5.30
2011,05,17,03,44,5.30
2011,05,17,03,45,5.30
2011,05,17,03,46,5.30
2011,05,17,03,47,5.30
2011,05,17,03,48,5.30
2011,05,17,03,49,5.30
2011,05,17,03,50,5.30
2011,05,17,03,51,5.30
2011,05,17,03,52,5.20
2011,05,17,03,53,5.20
2011,05,17,03,54,5.20
2011,05,17,03,55,5.20
2011,05,17,03,56,5.20
2011,05,17,03,57,5.20
2011,05,17,03,58,5.20
2011,05,17,03,59,5.20
2011,05,17,04,00,5.20
2011,05,17,04,01,5.20
2011,05,17,04,02,5.20
2011,05,17,04,03,5.20
2011,05,17,04,04,5.20
2011,05,17,04,05,5.20
2011,05,17,04,06,5.30
2011,05,17,04,07,5.30
2011,05,17,04,08,5.20
2011,05,17,04,09,5.20
2011,05,17,04,10,5.20
2011,05,17,04,11,5.20
2011,05,17,04,12,5.20
2011,05,17,04,13,5.20
2011,05,17,04,14,5.20
2011,05,17,04,15,5.20
2011,05,17,04,16,5.20
2011,05,17,04,17,5.20
2011,05,17,04,18,5.20
2011,05,17,04,19,5.20
2011,05,17,04,20,5.20
2011,05,17,04,21,5.20
2011,05,17,04,22,5.10
2011,05,17,04,23,5.10
2011,05,17,04,24,5.10
2011,05,17,04,25,5.10
2011,05,17,04,26,5.10
2011,05,17,04,27,5.10
2011,05,17,04,28,5.00
2011,05,17,04,29,5.00
2011,05,17,04,30,5.00
2011,05,17,04,31,4.90
2011,05,17,04,32,4.90
2011,05,17,04,33,4.90
2011,05,17,04,34,4.90
2011,05,17,04,35,4.90
2011,05,17,04,36,4.90
2011,05,17,04,37,4.90
2011,05,17,04,38,4.90
2011,05,17,04,39,4.90
2011,05,17,04,40,4.90
2011,05,17,04,41,4.80
2011,05,17,04,42,4.80
2011,05,17,04,43,4.80
2011,05,17,04,44,4.80
2011,05,17,04,45,4.80
2011,05,17,04,46,4.80
2011,05,17,04,47,4.80
2011,05,17,04,48,4.80
2011,05,17,04,49,4.80
2011,05,17,04,50,4.80
2011,05,17,04,51,4.80
2011,05,17,04,52,4.80
2011,05,17,04,53,4.80
2011,05,17,04,54,4.80
2011,05,17,04,55,4.80
2011,05,17,04,56,4.80
2011,05,17,04,57,4.80
2011,05,17,04,58,4.80
2011,05,17,04,59,4.80
2011,05,17,05,00,4.80
2011,05,17,05,01,4.80
2011,05,17,05,02,4.80
2011,05,17,05,03,4.80
2011,05,17,05,04,4.80
2011,05,17,05,05,4.80
2011,05,17,05,06,4.80
2011,05,17,05,07,4.80
2011,05,17,05,08,4.80
2011,05,17,05,09,4.80
2011,05,17,05,10,4.80
2011,05,17,05,11,4.80
2011,05,17,05,12,4.80
2011,05,17,05,13,4.80
2011,05,17,05,14,4.80
2011,05,17,05,15,4.80
2011,05,17,05,16,4.80
2011,05,17,05,17,4.80
2011,05,17,05,18,4.80
2011,05,17,05,19,4.80
2011,05,17,05,20,4.80
2011,05,17,05,21,4.80
2011,05,17,05,22,4.80
2011,05,17,05,23,4.70
2011,05,17,05,24,4.70
2011,05,17,05,25,4.70
2011,05,17,05,26,4.70
2011,05,17,05,27,4.70
2011,05,17,05,28,4.70
2011,05,17,05,29,4.70
2011,05,17,05,30,4.70
2011,05,17,05,31,4.70
2011,05,17,05,32,4.70
2011,05,17,05,33,4.70
2011,05,17,05,34,4.70
2011,05,17,05,35,4.60
2011,05,17,05,36,4.60
2011,05,17,05,37,4.60
2011,05,17,05,38,4.60
2011,05,17,05,39,4.50
2011,05,17,05,40,4.50
2011,05,17,05,41,4.50
2011,05,17,05,42,4.40
2011,05,17,05,43,4.40
2011,05,17,05,44,4.40
2011,05,17,05,45,4.40
2011,05,17,05,46,4.40
2011,05,17,05,47,4.40
2011,05,17,05,48,4.50
2011,05,17,05,49,4.50
2011,05,17,05,50,4.60
2011,05,17,05,51,4.60
2011,05,17,05,52,4.60
2011,05,17,05,53,4.70
2011,05,17,05,54,4.70
2011,05,17,05,55,4.70
2011,05,17,05,56,4.60
2011,05,17,05,57,4.60
2011,05,17,05,58,4.60
2011,05,17,05,59,4.60
2011,05,17,06,00,4.60
2011,05,17,06,01,4.60
2011,05,17,06,02,4.60
2011,05,17,06,03,4.60
2011,05,17,06,04,4.60
2011,05,17,06,05,4.60
2011,05,17,06,06,4.60
2011,05,17,06,07,4.60
2011,05,17,06,08,4.60
2011,05,17,06,09,4.60
2011,05,17,06,10,4.50
2011,05,17,06,11,4.50
2011,05,17,06,12,4.50
2011,05,17,06,13,4.50
2011,05,17,06,14,4.50
2011,05,17,06,15,4.60
2011,05,17,06,16,4.60
2011,05,17,06,17,4.60
2011,05,17,06,18,4.60
2011,05,17,06,19,4.70
2011,05,17,06,20,4.70
2011,05,17,06,21,4.70
2011,05,17,06,22,4.70
2011,05,17,06,23,4.70
2011,05,17,06,24,4.70
2011,05,17,06,25,4.70
2011,05,17,06,26,4.70
2011,05,17,06,27,4.70
2011,05,17,06,28,4.70
2011,05,17,06,29,4.70
2011,05,17,06,30,4.70
2011,05,17,06,31,4.70
2011,05,17,06,32,4.70
2011,05,17,06,33,4.70
2011,05,17,06,34,4.70
2011,05,17,06,35,4.70
2011,05,17,06,36,4.70
2011,05,17,06,37,4.70
2011,05,17,06,38,4.70
2011,05,17,06,39,4.80
2011,05,17,06,40,4.80
2011,05,17,06,41,4.80
2011,05,17,06,42,4.80
2011,05,17,06,43,4.80
2011,05,17,06,44,4.80
2011,05,17,06,45,4.80
2011,05,17,06,46,4.80
2011,05,17,06,47,4.80
2011,05,17,06,48,4.90
2011,05,17,06,49,4.90
2011,05,17,06,50,4.90
2011,05,17,06,51,4.90
2011,05,17,06,52,4.90
2011,05,17,06,53,5.00
2011,05,17,06,54,5.00
2011,05,17,06,55,5.10
2011,05,17,06,56,5.10
2011,05,17,06,57,5.10
2011,05,17,06,58,5.10
2011,05,17,06,59,5.20
2011,05,17,07,00,5.20
2011,05,17,07,01,5.20
2011,05,17,07,02,5.30
2011,05,17,07,03,5.30
2011,05,17,07,04,5.40
2011,05,17,07,05,5.50
2011,05,17,07,06,5.50
2011,05,17,07,07,5.60
2011,05,17,07,08,5.60
2011,05,17,07,09,5.70
2011,05,17,07,10,5.70
2011,05,17,07,11,5.80
2011,05,17,07,12,5.80
2011,05,17,07,13,5.90
2011,05,17,07,14,5.90
2011,05,17,07,15,5.90
2011,05,17,07,16,6.00
2011,05,17,07,17,6.10
2011,05,17,07,18,6.10
2011,05,17,07,19,6.20
2011,05,17,07,20,6.20
2011,05,17,07,21,6.20
2011,05,17,07,22,6.30
2011,05,17,07,23,6.30
2011,05,17,07,24,6.30
2011,05,17,07,25,6.40
2011,05,17,07,26,6.40
2011,05,17,07,27,6.40
2011,05,17,07,28,6.50
2011,05,17,07,29,6.50
2011,05,17,07,30,6.60
2011,05,17,07,31,6.60
2011,05,17,07,32,6.70
2011,05,17,07,33,6.70
2011,05,17,07,34,6.70
2011,05,17,07,35,6.80
2011,05,17,07,36,6.90
2011,05,17,07,37,6.90
2011,05,17,07,38,7.00
2011,05,17,07,39,7.10
2011,05,17,07,40,7.20
2011,05,17,07,41,7.20
2011,05,17,07,42,7.30
2011,05,17,07,43,7.40
2011,05,17,07,44,7.50
2011,05,17,07,45,7.60
2011,05,17,07,46,7.70
2011,05,17,07,47,7.70
2011,05,17,07,48,7.80
2011,05,17,07,49,7.80
2011,05,17,07,50,7.90
2011,05,17,07,51,7.90
2011,05,17,07,52,7.90
2011,05,17,07,53,8.00
2011,05,17,07,54,8.00
2011,05,17,07,55,8.00
2011,05,17,07,56,8.10
2011,05,17,07,57,8.10
2011,05,17,07,58,8.20
2011,05,17,07,59,8.30
2011,05,17,08,00,8.30
2011,05,17,08,01,8.40
2011,05,17,08,02,8.40
2011,05,17,08,03,8.50
2011,05,17,08,04,8.50
2011,05,17,08,05,8.60
2011,05,17,08,06,8.60
2011,05,17,08,07,8.70
2011,05,17,08,08,8.70
2011,05,17,08,09,8.80
2011,05,17,08,10,8.80
2011,05,17,08,11,8.90
2011,05,17,08,12,9.00
2011,05,17,08,13,9.10
2011,05,17,08,14,9.20
2011,05,17,08,15,9.20
2011,05,17,08,16,9.30
2011,05,17,08,17,9.40
2011,05,17,08,18,9.50
2011,05,17,08,19,9.50
2011,05,17,08,20,9.60
2011,05,17,08,21,9.60
2011,05,17,08,22,9.70
2011,05,17,08,23,9.70
2011,05,17,08,24,9.70
2011,05,17,08,25,9.70
2011,05,17,08,26,9.70
2011,05,17,08,27,9.80
2011,05,17,08,28,9.80
2011,05,17,08,29,9.90
2011,05,17,08,30,10.00
2011,05,17,08,31,10.00
2011,05,17,08,32,10.10
2011,05,17,08,33,10.20
2011,05,17,08,34,10.20
2011,05,17,08,35,10.20
2011,05,17,08,36,10.20
2011,05,17,08,37,10.30
2011,05,17,08,38,10.40
2011,05,17,08,39,10.40
2011,05,17,08,40,10.50
2011,05,17,08,41,10.50
2011,05,17,08,42,10.60
2011,05,17,08,43,10.60
2011,05,17,08,44,10.70
2011,05,17,08,45,10.70
2011,05,17,08,46,10.70
2011,05,17,08,47,10.70
2011,05,17,08,48,10.80
2011,05,17,08,49,10.80
2011,05,17,08,50,10.80
2011,05,17,08,51,10.80
2011,05,17,08,52,10.80
2011,05,17,08,53,10.70
2011,05,17,08,54,10.70
2011,05,17,08,55,10.60
2011,05,17,08,56,10.60
2011,05,17,08,57,10.60
2011,05,17,08,58,10.60
2011,05,17,08,59,10.50
2011,05,17,09,00,10.50
2011,05,17,09,01,10.50
2011,05,17,09,02,10.50
2011,05,17,09,03,10.40
2011,05,17,09,04,10.40
2011,05,17,09,05,10.30
2011,05,17,09,06,10.30
2011,05,17,09,07,10.20
2011,05,17,09,08,10.20
2011,05,17,09,09,10.20
2011,05,17,09,10,10.20
2011,05,17,09,11,10.20
2011,05,17,09,12,10.30
2011,05,17,09,13,10.30
2011,05,17,09,14,10.30
2011,05,17,09,15,10.30
2011,05,17,09,16,10.20
2011,05,17,09,17,10.20
2011,05,17,09,18,10.20
2011,05,17,09,19,10.10
2011,05,17,09,20,10.10
2011,05,17,09,21,10.20
2011,05,17,09,22,10.20
2011,05,17,09,23,10.20
2011,05,17,09,24,10.20
2011,05,17,09,25,10.10
2011,05,17,09,26,10.20
2011,05,17,09,27,10.20
2011,05,17,09,28,10.20
2011,05,17,09,29,10.20
2011,05,17,09,30,10.20
2011,05,17,09,31,10.20
2011,05,17,09,32,10.10
2011,05,17,09,33,10.10
2011,05,17,09,34,10.10
2011,05,17,09,35,10.10
2011,05,17,09,36,10.10
2011,05,17,09,37,10.20
2011,05,17,09,38,10.10
2011,05,17,09,39,10.10
2011,05,17,09,40,10.10
2011,05,17,09,41,10.00
2011,05,17,09,42,9.90
2011,05,17,09,43,9.90
2011,05,17,09,44,9.90
2011,05,17,09,45,10.00
2011,05,17,09,46,10.00
2011,05,17,09,47,10.00
2011,05,17,09,48,10.00
2011,05,17,09,49,9.90
2011,05,17,09,50,9.90
2011,05,17,09,51,9.90
2011,05,17,09,52,9.90
2011,05,17,09,53,9.80
2011,05,17,09,54,9.80
2011,05,17,09,55,9.90
2011,05,17,09,56,9.90
2011,05,17,09,57,9.90
2011,05,17,09,58,10.00
2011,05,17,09,59,10.00
2011,05,17,10,00,10.10
2011,05,17,10,01,10.10
2011,05,17,10,02,10.10
2011,05,17,10,03,10.10
2011,05,17,10,04,10.00
2011,05,17,10,05,10.00
2011,05,17,10,06,9.90
2011,05,17,10,07,9.90
2011,05,17,10,08,9.90
2011,05,17,10,09,9.90
2011,05,17,10,10,9.90
2011,05,17,10,11,9.90
2011,05,17,10,12,9.90
2011,05,17,10,13,9.90
2011,05,17,10,14,9.80
2011,05,17,10,15,9.90
2011,05,17,10,16,9.90
2011,05,17,10,17,9.80
2011,05,17,10,18,9.80
2011,05,17,10,19,9.80
2011,05,17,10,20,9.80
2011,05,17,10,21,9.80
2011,05,17,10,22,9.90
2011,05,17,10,23,9.90
2011,05,17,10,24,9.90
2011,05,17,10,25,9.90
2011,05,17,10,26,9.90
2011,05,17,10,27,9.90
2011,05,17,10,28,9.80
2011,05,17,10,29,9.70
2011,05,17,10,30,9.70
2011,05,17,10,31,9.70
2011,05,17,10,32,9.70
2011,05,17,10,33,9.80
2011,05,17,10,34,9.80
2011,05,17,10,35,9.80
2011,05,17,10,36,9.90
2011,05,17,10,37,9.90
2011,05,17,10,38,10.00
2011,05,17,10,39,10.10
2011,05,17,10,40,10.10
2011,05,17,10,41,10.10
2011,05,17,10,42,10.20
2011,05,17,10,43,10.30
2011,05,17,10,44,10.30
2011,05,17,10,45,10.40
2011,05,17,10,46,10.40
2011,05,17,10,47,10.30
2011,05,17,10,48,10.30
2011,05,17,10,49,10.30
2011,05,17,10,50,10.20
2011,05,17,10,51,10.30
2011,05,17,10,52,10.30
2011,05,17,10,53,10.30
2011,05,17,10,54,10.20
2011,05,17,10,55,10.20
2011,05,17,10,56,10.20
2011,05,17,10,57,10.30
2011,05,17,10,58,10.30
2011,05,17,10,59,10.30
2011,05,17,11,00,10.40
2011,05,17,11,01,10.40
2011,05,17,11,02,10.30
2011,05,17,11,03,10.30
2011,05,17,11,04,10.30
2011,05,17,11,05,10.20
2011,05,17,11,06,10.20
2011,05,17,11,07,10.20
2011,05,17,11,08,10.20
2011,05,17,11,09,10.20
2011,05,17,11,10,10.20
2011,05,17,11,11,10.20
2011,05,17,11,12,10.20
2011,05,17,11,13,10.30
2011,05,17,11,14,10.30
2011,05,17,11,15,10.40
2011,05,17,11,16,10.40
2011,05,17,11,17,10.30
2011,05,17,11,18,10.20
2011,05,17,11,19,10.20
2011,05,17,11,20,10.20
2011,05,17,11,21,10.20
2011,05,17,11,22,10.20
2011,05,17,11,23,10.20
2011,05,17,11,24,10.20
2011,05,17,11,25,10.30
2011,05,17,11,26,10.30
2011,05,17,11,27,10.20
2011,05,17,11,28,10.20
2011,05,17,11,29,10.30
2011,05,17,11,30,10.30
2011,05,17,11,31,10.30
2011,05,17,11,32,10.30
2011,05,17,11,33,10.40
2011,05,17,11,34,10.40
2011,05,17,11,35,10.40
2011,05,17,11,36,10.30
2011,05,17,11,37,10.20
2011,05,17,11,38,10.20
2011,05,17,11,39,10.20
2011,05,17,11,40,10.30
2011,05,17,11,41,10.30
2011,05,17,11,42,10.30
2011,05,17,11,43,10.40
2011,05,17,11,44,10.40
2011,05,17,11,45,10.40
2011,05,17,11,46,10.50
2011,05,17,11,47,10.60
2011,05,17,11,48,10.60
2011,05,17,11,49,10.60
2011,05,17,11,50,10.60
2011,05,17,11,51,10.60
2011,05,17,11,52,10.60
2011,05,17,11,53,10.60
2011,05,17,11,54,10.60
2011,05,17,11,55,10.50
2011,05,17,11,56,10.50
2011,05,17,11,57,10.50
2011,05,17,11,58,10.50
2011,05,17,11,59,10.50
2011,05,17,12,00,10.60
2011,05,17,12,01,10.60
2011,05,17,12,02,10.60
2011,05,17,12,03,10.60
2011,05,17,12,04,10.60
2011,05,17,12,05,10.60
2011,05,17,12,06,10.60
2011,05,17,12,07,10.50
2011,05,17,12,08,10.50
2011,05,17,12,09,10.50
2011,05,17,12,10,10.40
2011,05,17,12,11,10.40
2011,05,17,12,12,10.40
2011,05,17,12,13,10.40
2011,05,17,12,14,10.40
2011,05,17,12,15,10.40
2011,05,17,12,16,10.40
2011,05,17,12,17,10.40
2011,05,17,12,18,10.40
2011,05,17,12,19,10.40
2011,05,17,12,20,10.40
2011,05,17,12,21,10.40
2011,05,17,12,22,10.40
2011,05,17,12,23,10.40
2011,05,17,12,24,10.50
2011,05,17,12,25,10.40
2011,05,17,12,26,10.50
2011,05,17,12,27,10.60
2011,05,17,12,28,10.70
2011,05,17,12,29,10.70
2011,05,17,12,30,10.70
2011,05,17,12,31,10.70
2011,05,17,12,32,10.60
2011,05,17,12,33,10.60
2011,05,17,12,34,10.60
2011,05,17,12,35,10.60
2011,05,17,12,36,10.50
2011,05,17,12,37,10.60
2011,05,17,12,38,10.60
2011,05,17,12,39,10.70
2011,05,17,12,40,10.70
2011,05,17,12,41,10.80
2011,05,17,12,42,10.80
2011,05,17,12,43,10.80
2011,05,17,12,44,10.80
2011,05,17,12,45,10.80
2011,05,17,12,46,10.80
2011,05,17,12,47,10.90
2011,05,17,12,48,10.90
2011,05,17,12,49,10.80
2011,05,17,12,50,10.70
2011,05,17,12,51,10.70
2011,05,17,12,52,10.60
2011,05,17,12,53,10.60
2011,05,17,12,54,10.70
2011,05,17,12,55,10.70
2011,05,17,12,56,10.70
2011,05,17,12,57,10.80
2011,05,17,12,58,10.80
2011,05,17,12,59,10.80
2011,05,17,13,00,10.90
2011,05,17,13,01,10.90
2011,05,17,13,02,10.90
2011,05,17,13,03,10.90
2011,05,17,13,04,10.90
2011,05,17,13,05,10.90
2011,05,17,13,06,10.80
2011,05,17,13,07,10.90
2011,05,17,13,08,10.90
2011,05,17,13,09,10.80
2011,05,17,13,10,10.80
2011,05,17,13,11,10.80
2011,05,17,13,12,10.90
2011,05,17,13,13,11.00
2011,05,17,13,14,11.20
2011,05,17,13,15,11.30
2011,05,17,13,16,11.50
2011,05,17,13,17,11.70
2011,05,17,13,18,11.80
2011,05,17,13,19,11.80
2011,05,17,13,20,11.80
2011,05,17,13,21,11.80
2011,05,17,13,22,11.80
2011,05,17,13,23,11.90
2011,05,17,13,24,11.90
2011,05,17,13,25,11.90
2011,05,17,13,26,11.80
2011,05,17,13,27,11.70
2011,05,17,13,28,11.60
2011,05,17,13,29,11.60
2011,05,17,13,30,11.50
2011,05,17,13,31,11.60
2011,05,17,13,32,11.60
2011,05,17,13,33,11.70
2011,05,17,13,34,11.70
2011,05,17,13,35,11.80
2011,05,17,13,36,11.80
2011,05,17,13,37,11.90
2011,05,17,13,38,11.90
2011,05,17,13,39,11.90
2011,05,17,13,40,11.90
2011,05,17,13,41,11.90
2011,05,17,13,42,11.80
2011,05,17,13,43,11.70
2011,05,17,13,44,11.60
2011,05,17,13,45,11.50
2011,05,17,13,46,11.50
2011,05,17,13,47,11.40
2011,05,17,13,48,11.50
2011,05,17,13,49,11.50
2011,05,17,13,50,11.50
2011,05,17,13,51,11.50
2011,05,17,13,52,11.50
2011,05,17,13,53,11.50
2011,05,17,13,54,11.50
2011,05,17,13,55,11.40
2011,05,17,13,56,11.30
2011,05,17,13,57,11.20
2011,05,17,13,58,11.20
2011,05,17,13,59,11.20
2011,05,17,14,00,11.30
2011,05,17,14,01,11.40
2011,05,17,14,02,11.40
2011,05,17,14,03,11.40
2011,05,17,14,04,11.30
2011,05,17,14,05,11.30
2011,05,17,14,06,11.30
2011,05,17,14,07,11.30
2011,05,17,14,08,11.40
2011,05,17,14,09,11.50
2011,05,17,14,10,11.60
2011,05,17,14,11,11.70
2011,05,17,14,12,11.90
2011,05,17,14,13,12.10
2011,05,17,14,14,12.20
2011,05,17,14,15,12.40
2011,05,17,14,16,12.60
2011,05,17,14,17,12.70
2011,05,17,14,18,12.70
2011,05,17,14,19,12.80
2011,05,17,14,20,12.90
2011,05,17,14,21,13.00
2011,05,17,14,22,13.10
2011,05,17,14,23,13.00
2011,05,17,14,24,13.00
2011,05,17,14,25,12.90
2011,05,17,14,26,12.80
2011,05,17,14,27,12.70
2011,05,17,14,28,12.70
2011,05,17,14,29,12.70
2011,05,17,14,30,12.80
2011,05,17,14,31,12.90
2011,05,17,14,32,13.00
2011,05,17,14,33,13.00
2011,05,17,14,34,13.20
2011,05,17,14,35,13.30
2011,05,17,14,36,13.40
2011,05,17,14,37,13.50
2011,05,17,14,38,13.50
2011,05,17,14,39,13.50
2011,05,17,14,40,13.60
2011,05,17,14,41,13.50
2011,05,17,14,42,13.50
2011,05,17,14,43,13.50
2011,05,17,14,44,13.50
2011,05,17,14,45,13.60
2011,05,17,14,46,13.50
2011,05,17,14,47,13.50
2011,05,17,14,48,13.40
2011,05,17,14,49,13.40
2011,05,17,14,50,13.40
2011,05,17,14,51,13.50
2011,05,17,14,52,13.60
2011,05,17,14,53,13.60
2011,05,17,14,54,13.70
2011,05,17,14,55,13.60
2011,05,17,14,56,13.50
2011,05,17,14,57,13.50
2011,05,17,14,58,13.50
2011,05,17,14,59,13.60
2011,05,17,15,00,13.60
2011,05,17,15,01,13.40
2011,05,17,15,02,13.20
2011,05,17,15,03,13.00
2011,05,17,15,04,12.80
2011,05,17,15,05,12.70
2011,05,17,15,06,12.70
2011,05,17,15,07,12.70
2011,05,17,15,08,12.80
2011,05,17,15,09,12.80
2011,05,17,15,10,12.80
2011,05,17,15,11,12.70
2011,05,17,15,12,12.60
2011,05,17,15,13,12.50
2011,05,17,15,14,12.30
2011,05,17,15,15,12.20
2011,05,17,15,16,12.20
2011,05,17,15,17,12.10
2011,05,17,15,18,12.00
2011,05,17,15,19,12.00
2011,05,17,15,20,11.90
2011,05,17,15,21,11.80
2011,05,17,15,22,11.80
2011,05,17,15,23,11.90
2011,05,17,15,24,11.90
2011,05,17,15,25,12.00
2011,05,17,15,26,12.00
2011,05,17,15,27,12.00
2011,05,17,15,28,12.10
2011,05,17,15,29,12.10
2011,05,17,15,30,12.20
2011,05,17,15,31,12.40
2011,05,17,15,32,12.60
2011,05,17,15,33,12.70
2011,05,17,15,34,13.00
2011,05,17,15,35,13.20
2011,05,17,15,36,13.40
2011,05,17,15,37,13.60
2011,05,17,15,38,13.70
2011,05,17,15,39,13.90
2011,05,17,15,40,14.00
2011,05,17,15,41,14.10
2011,05,17,15,42,14.20
2011,05,17,15,43,14.20
2011,05,17,15,44,14.20
2011,05,17,15,45,14.20
2011,05,17,15,46,14.20
2011,05,17,15,47,14.20
2011,05,17,15,48,14.10
2011,05,17,15,49,14.00
2011,05,17,15,50,13.90
2011,05,17,15,51,13.90
2011,05,17,15,52,13.90
2011,05,17,15,53,13.90
2011,05,17,15,54,13.80
2011,05,17,15,55,13.70
2011,05,17,15,56,13.60
2011,05,17,15,57,13.50
2011,05,17,15,58,13.30
2011,05,17,15,59,13.30
2011,05,17,16,00,13.20
2011,05,17,16,01,13.20
2011,05,17,16,02,13.20
2011,05,17,16,03,13.10
2011,05,17,16,04,13.10
2011,05,17,16,05,13.10
2011,05,17,16,06,13.10
2011,05,17,16,07,13.20
2011,05,17,16,08,13.30
2011,05,17,16,09,13.50
2011,05,17,16,10,13.60
2011,05,17,16,11,13.60
2011,05,17,16,12,13.70
2011,05,17,16,13,13.70
2011,05,17,16,14,13.80
2011,05,17,16,15,13.90
2011,05,17,16,16,14.10
2011,05,17,16,17,14.20
2011,05,17,16,18,14.30
2011,05,17,16,19,14.30
2011,05,17,16,20,14.40
2011,05,17,16,21,14.50
2011,05,17,16,22,14.50
2011,05,17,16,23,14.60
2011,05,17,16,24,14.60
2011,05,17,16,25,14.60
2011,05,17,16,26,14.50
2011,05,17,16,27,14.40
2011,05,17,16,28,14.40
2011,05,17,16,29,14.40
2011,05,17,16,30,14.30
2011,05,17,16,31,14.20
2011,05,17,16,32,14.20
2011,05,17,16,33,14.10
2011,05,17,16,34,14.10
2011,05,17,16,35,13.90
2011,05,17,16,36,13.80
2011,05,17,16,37,13.80
2011,05,17,16,38,13.80
2011,05,17,16,39,13.80
2011,05,17,16,40,13.80
2011,05,17,16,41,13.90
2011,05,17,16,42,14.00
2011,05,17,16,43,14.00
2011,05,17,16,44,14.10
2011,05,17,16,45,14.20
2011,05,17,16,46,14.20
2011,05,17,16,47,14.30
2011,05,17,16,48,14.40
2011,05,17,16,49,14.60
2011,05,17,16,50,14.70
2011,05,17,16,51,14.70
2011,05,17,16,52,14.70
2011,05,17,16,53,14.80
2011,05,17,16,54,14.90
2011,05,17,16,55,14.90
2011,05,17,16,56,15.00
2011,05,17,16,57,14.90
2011,05,17,16,58,14.80
2011,05,17,16,59,14.70
2011,05,17,17,00,14.70
2011,05,17,17,01,14.60
2011,05,17,17,02,14.60
2011,05,17,17,03,14.50
2011,05,17,17,04,14.40
2011,05,17,17,05,14.40
2011,05,17,17,06,14.40
2011,05,17,17,07,14.30
2011,05,17,17,08,14.30
2011,05,17,17,09,14.30
2011,05,17,17,10,14.40
2011,05,17,17,11,14.40
2011,05,17,17,12,14.40
2011,05,17,17,13,14.50
2011,05,17,17,14,14.50
2011,05,17,17,15,14.60
2011,05,17,17,16,14.60
2011,05,17,17,17,14.60
2011,05,17,17,18,14.70
2011,05,17,17,19,14.70
2011,05,17,17,20,14.70
2011,05,17,17,21,14.80
2011,05,17,17,22,14.80
2011,05,17,17,23,14.70
2011,05,17,17,24,14.70
2011,05,17,17,25,14.80
2011,05,17,17,26,14.90
2011,05,17,17,27,15.00
2011,05,17,17,28,15.00
2011,05,17,17,29,15.10
2011,05,17,17,30,15.20
2011,05,17,17,31,15.20
2011,05,17,17,32,15.20
2011,05,17,17,33,15.20
2011,05,17,17,34,15.20
2011,05,17,17,35,15.20
2011,05,17,17,36,15.20
2011,05,17,17,37,15.30
2011,05,17,17,38,15.20
2011,05,17,17,39,15.10
2011,05,17,17,40,15.00
2011,05,17,17,41,15.00
2011,05,17,17,42,14.90
2011,05,17,17,43,14.60